Wind_Speed
38 38 39 39 39 40 40 39 40 40 41 40 40 39 39 39 39 40 40 40 41 41 41 41 41 42 42 43 43 44 44 45 46 45 45 45 45 44 44 44 44 45 45
35 35 36 36 36 37 37 37 37 38 38 38 38 37 37 37 37 39 39 39 40 40 40 40 40 41 42 42 43 44 45 45 46 46 46 47 47 46 46 46 46 45 45
33 33 34 33 33 34 35 35 35 36 36 37 37 37 37 37 38 38 39 39 39 40 40 40 40 41 42 43 44 45 46 46 46 46 46 47 47 47 47 47 47 46 46
32 33 33 32 32 32 33 33 33 34 35 35 36 36 37 37 37 38 39 38 38 39 39 39 40 41 41 42 43 44 45 46 46 46 47 47 47 48 48 47 47 47 47
32 32 31 31 32 31 30 30 32 33 34 34 35 36 36 36 37 37 37 37 38 38 38 39 39 40 41 41 42 43 44 46 46 47 47 47 47 47 48 48 48 48 48
31 31 31 31 32 31 30 31 31 32 32 33 34 34 35 35 35 36 36 37 37 37 38 38 38 39 39 40 41 42 42 44 45 46 46 46 47 46 47 47 47 48 47
30 30 29 29 30 30 31 31 31 31 32 32 33 33 33 34 35 35 35 36 36 36 36 36 37 37 38 38 39 40 40 41 43 44 44 44 44 44 45 46 46 46 46
28 28 27 28 29 29 30 30 30 30 31 31 32 33 33 34 34 34 34 35 35 35 35 35 36 36 37 37 38 38 39 40 41 42 42 42 42 43 43 44 44 44 43
27 27 27 27 28 28 29 29 29 29 30 30 31 32 32 32 33 34 34 34 33 34 34 35 35 36 36 36 36 37 37 38 39 40 40 39 39 40 40 41 40 40 40
26 26 26 25 25 26 27 27 28 29 29 29 30 30 31 31 32 32 32 32 33 33 33 33 33 33 34 34 34 34 35 35 36 37 37 37 37 37 38 38 38 37 37
25 25 25 25 25 26 26 27 27 27 28 28 29 29 30 30 30 30 31 31 32 32 32 32 32 32 32 32 32 32 32 33 33 34 34 34 34 35 35 35 36 35 35
24 24 24 25 26 26 26 27 27 27 27 28 28 28 29 29 29 30 30 30 30 30 30 30 30 30 30 30 30 31 31 31 31 31 31 31 32 32 32 33 33 33 33
22 23 24 25 25 25 25 26 27 27 27 28 27 27 27 27 28 28 28 28 28 28 28 28 28 28 28 28 28 28 29 29 29 29 30 30 30 31 30 31 31 31 30
21 21 23 24 23 23 23 24 24 25 25 26 25 25 26 26 26 27 27 27 26 26 26 26 27 27 27 26 27 27 27 27 27 28 28 29 29 29 29 28 28 28 28
20 21 21 22 22 21 21 21 22 23 23 23 24 24 24 24 25 25 25 25 25 25 25 25 25 25 26 26 25 26 26 26 26 26 27 27 27 28 27 27 27 26 26
19 20 20 20 20 20 20 20 21 21 21 21 21 21 21 22 22 22 22 22 23 23 23 23 23 23 24 24 24 24 24 25 25 24 24 24 25 25 25 25 26 26 25
18 19 19 19 19 19 19 19 19 19 19 18 18 18 18 19 19 19 19 20 20 20 20 21 21 21 21 22 22 22 22 23 22 22 23 23 22 22 23 23 24 24 23
17 17 17 17 18 18 17 17 17 17 16 16 16 16 16 17 17 17 18 18 18 18 19 19 19 19 19 19 20 20 20 20 20 20 21 21 21 20 20 21 21 21 22
16 16 16 16 16 16 16 16 16 16 15 15 15 15 15 15 16 16 17 17 17 17 18 18 17 17 18 18 18 18 18 18 18 18 19 19 19 18 18 19 19 20 20
16 16 16 16 15 14 14 14 15 15 15 15 14 15 15 15 15 15 16 16 16 16 16 16 16 16 15 15 16 16 16 16 16 16 16 16 16 16 16 16 16 17 17
15 15 15 14 14 13 13 13 14 14 15 15 14 14 14 14 14 14 14 15 15 15 15 15 14 14 13 13 13 14 14 13 13 13 14 14 14 14 14 13 14 14 14
14 15 14 14 14 14 14 13 13 14 14 14 14 14 14 14 13 13 13 13 13 13 13 13 13 12 12 12 12 12 11 11 11 11 11 11 11 11 12 12 12 12 12
14 15 14 14 14 14 14 14 14 14 13 13 13 13 13 13 12 12 11 11 12 12 11 11 11 11 11 11 11 11 10 10 10 9 9 9 9 9 10 10 10 10 10
14 14 14 14 14 14 14 14 14 13 13 13 12 12 12 11 11 11 11 10 10 10 10 10 10 10 10 10 11 10 9 8 8 8 8 8 8 9 9 9 9 9 9
14 14 14 14 14 14 14 14 13 13 12 12 12 11 10 10 10 10 9 9 9 9 9 9 9 9 9 9 9 8 7 7 7 7 8 8 8 8 8 8 9 9 9
14 14 14 14 13 13 12 12 12 11 11 11 11 11 10 10 9 9 9 9 9 9 9 9 9 9 9 8 8 7 7 7 7 8 8 8 8 8 8 8 9 9 9
Wind_Direction
271 269 268 266 266 265 265 264 263 262 261 261 261 260 261 261 261 262 262 262 262 262 263 262 261 261 261 261 261 261 262 262 261 262 264 265 265 266 266 266 266 268 269
270 269 268 267 266 265 264 264 262 261 261 260 260 259 259 259 261 262 262 262 262 262 262 262 262 262 262 262 261 261 262 262 262 263 264 265 266 266 266 266 267 268 269
271 269 267 266 265 264 264 264 262 260 259 260 259 259 259 260 261 263 262 263 263 262 262 263 263 263 263 263 262 262 263 263 263 263 264 266 266 267 266 266 266 267 268
273 270 267 265 265 265 264 264 262 261 259 258 259 259 260 261 261 262 263 264 263 263 263 263 263 265 265 265 265 264 264 264 265 265 266 267 267 266 266 266 267 267 268
273 270 267 265 265 265 265 264 264 262 260 259 260 261 261 262 262 263 264 264 264 264 265 265 264 265 266 267 266 266 266 266 266 266 267 267 267 267 266 267 267 268 269
274 271 268 267 266 265 265 265 266 264 261 261 262 262 262 263 264 264 265 266 267 267 267 267 266 266 267 267 268 268 267 267 267 267 267 268 268 267 266 267 269 269 269
274 271 268 267 267 265 265 265 265 264 262 262 262 263 263 264 265 266 267 268 268 268 268 268 268 268 268 269 269 269 268 269 269 269 269 269 269 267 266 267 268 270 270
274 270 268 268 269 266 265 264 265 264 263 263 263 263 264 265 266 267 268 269 269 269 269 269 269 270 270 270 270 270 270 270 270 269 269 268 267 267 268 268 269 270 270
272 269 269 270 270 268 266 265 265 264 264 265 264 264 265 266 266 267 269 269 269 269 269 270 271 272 272 271 271 271 271 271 271 270 269 267 267 268 268 268 269 270 271
271 269 271 270 270 268 267 266 266 264 265 266 265 265 265 266 266 267 268 269 270 270 270 271 272 272 272 271 271 272 272 272 273 272 270 268 268 268 268 268 269 271 272
273 271 270 271 271 270 268 266 267 266 265 266 265 266 266 266 267 268 269 270 270 270 271 272 272 272 272 272 272 272 273 273 273 273 271 269 268 268 269 270 271 273 274
274 273 272 272 272 272 269 267 267 268 268 267 266 266 267 267 267 268 269 270 270 270 271 272 272 272 272 273 274 274 274 274 274 273 271 270 269 269 271 272 273 274 276
278 275 274 275 274 272 271 270 268 268 268 267 267 267 267 267 266 267 269 270 271 271 272 272 272 271 272 273 274 274 274 274 274 272 270 269 270 271 272 274 274 275 277
281 279 277 277 277 274 272 271 269 267 267 267 268 268 268 267 266 267 269 270 271 272 273 272 272 272 273 273 274 274 275 274 273 272 270 270 271 273 273 273 273 274 276
284 282 280 278 276 275 274 274 272 269 267 268 269 270 268 266 267 269 270 270 271 272 273 273 273 273 272 271 272 273 273 274 274 272 270 270 272 273 273 273 274 275 276
287 284 281 279 277 276 277 277 275 273 270 271 272 272 269 267 268 270 270 270 271 272 273 273 273 274 273 271 272 272 273 274 274 272 270 272 273 274 274 274 274 275 276
291 288 284 282 280 278 277 275 274 273 272 273 272 271 269 269 270 271 272 271 271 272 273 274 275 275 274 273 273 273 274 275 274 272 272 272 273 275 275 275 275 275 276
293 291 289 286 284 281 277 274 273 272 272 273 272 271 271 271 272 272 272 273 272 272 273 275 276 277 276 274 274 275 275 275 274 273 273 273 273 274 275 276 277 277 277
293 293 293 292 287 282 278 275 273 270 270 272 272 272 271 272 273 272 272 273 273 273 275 277 277 279 279 275 274 275 275 274 273 273 274 274 273 274 276 277 279 280 280
293 294 295 293 290 285 279 276 274 271 270 271 272 272 272 272 272 272 271 272 273 274 275 276 276 278 279 276 275 276 275 274 274 274 274 276 276 276 279 280 281 283 283
296 294 293 291 288 284 280 278 277 274 271 270 271 272 273 272 271 271 271 272 273 274 275 276 276 277 278 278 279 279 278 276 275 274 276 279 278 278 280 282 284 285 284
296 296 293 290 286 284 280 279 279 278 275 270 271 272 272 271 271 272 273 274 274 275 275 275 276 276 277 279 280 278 276 277 278 278 278 278 280 282 285 286 288 290 290
294 295 293 290 287 284 280 279 279 278 273 269 270 272 272 271 270 271 274 273 273 275 278 277 277 277 278 279 277 275 274 278 278 276 276 281 285 287 289 289 291 294 296
295 294 292 290 286 282 280 280 279 275 271 269 269 270 270 270 268 268 269 270 272 274 276 277 277 276 278 278 277 275 274 276 276 276 276 281 285 290 294 293 292 294 298
297 296 294 291 286 282 279 278 276 273 271 269 268 267 266 267 265 265 267 269 271 272 273 277 278 278 276 276 274 269 268 276 282 285 286 286 286 291 294 294 294 295 297
298 298 295 291 286 281 278 276 273 271 270 267 265 263 263 264 263 262 264 266 269 270 274 278 277 278 277 273 266 262 268 278 285 290 291 289 287 289 290 292 294 296 296
Height
5588 5588 5589 5589 5590 5591 5591 5593 5594 5596 5597 5599 5601 5603 5605 5606 5608 5609 5610 5612 5613 5614 5616 5617 5619 5620 5622 5624 5625 5627 5629 5630 5633 5635 5636 5637 5638 5639 5640 5641 5642 5643 5643
5577 5577 5578 5578 5579 5580 5581 5582 5583 5585 5586 5588 5590 5592 5594 5596 5597 5599 5600 5601 5602 5604 5605 5606 5608 5609 5611 5612 5614 5615 5617 5618 5620 5623 5624 5624 5625 5626 5627 5628 5629 5630 5630
5567 5568 5568 5568 5569 5570 5571 5572 5573 5574 5576 5578 5580 5582 5584 5586 5587 5589 5590 5591 5592 5593 5594 5596 5597 5598 5599 5601 5602 5603 5605 5606 5607 5609 5611 5611 5612 5613 5614 5615 5616 5617 5617
5558 5558 5558 5559 5560 5560 5561 5562 5563 5565 5566 5568 5570 5572 5574 5575 5577 5578 5579 5580 5581 5582 5583 5584 5585 5587 5588 5588 5590 5591 5591 5593 5594 5596 5597 5598 5599 5600 5601 5602 5603 5604 5604
5549 5548 5549 5550 5551 5551 5552 5553 5554 5555 5557 5558 5560 5562 5564 5565 5567 5568 5569 5570 5571 5572 5572 5573 5574 5575 5575 5576 5577 5578 5579 5580 5581 5582 5584 5585 5586 5586 5588 5588 5589 5590 5591
5540 5540 5540 5541 5541 5542 5543 5544 5545 5546 5547 5549 5550 5552 5554 5555 5556 5557 5559 5559 5560 5561 5561 5562 5563 5563 5564 5564 5565 5565 5566 5567 5568 5568 5570 5571 5572 5573 5574 5574 5575 5576 5577
5531 5531 5531 5532 5533 5534 5535 5536 5537 5537 5538 5540 5541 5543 5544 5545 5546 5547 5548 5549 5550 5550 5551 5551 5551 5552 5552 5552 5553 5553 5554 5554 5555 5555 5556 5557 5558 5559 5560 5561 5561 5561 5562
5523 5523 5523 5524 5525 5525 5526 5527 5528 5528 5530 5531 5532 5533 5534 5535 5536 5537 5538 5539 5539 5540 5540 5540 5541 5541 5541 5541 5541 5542 5542 5542 5542 5543 5544 5544 5544 5545 5546 5547 5547 5548 5548
5516 5516 5516 5516 5516 5517 5518 5518 5519 5520 5521 5522 5523 5524 5525 5526 5527 5527 5528 5528 5529 5529 5529 5530 5530 5530 5530 5530 5530 5530 5530 5530 5530 5531 5531 5531 5532 5533 5533 5534 5535 5535 5536
5508 5509 5508 5509 5509 5509 5509 5510 5510 5511 5512 5513 5514 5515 5516 5517 5517 5518 5518 5519 5519 5519 5520 5520 5520 5519 5519 5519 5519 5519 5520 5520 5520 5520 5520 5520 5521 5521 5522 5522 5523 5524 5524
5501 5501 5501 5501 5502 5502 5502 5502 5503 5503 5504 5505 5506 5506 5507 5508 5508 5508 5509 5509 5510 5510 5510 5510 5509 5509 5509 5509 5509 5509 5509 5509 5509 5509 5510 5510 5511 5511 5511 5512 5512 5513 5513
5494 5494 5494 5494 5494 5494 5494 5495 5495 5495 5496 5497 5497 5498 5498 5499 5499 5499 5500 5500 5500 5501 5501 5500 5500 5500 5500 5500 5500 5500 5500 5500 5500 5500 5500 5501 5501 5502 5502 5502 5502 5502 5502
5487 5487 5487 5487 5486 5486 5487 5487 5487 5487 5488 5489 5489 5489 5490 5490 5491 5491 5491 5492 5492 5492 5492 5492 5491 5491 5491 5491 5491 5491 5491 5491 5491 5492 5492 5492 5492 5493 5493 5493 5493 5493 5493
5481 5481 5480 5480 5479 5479 5479 5479 5479 5480 5480 5480 5481 5481 5482 5482 5483 5483 5483 5483 5484 5484 5484 5483 5483 5483 5483 5483 5483 5483 5482 5482 5483 5483 5483 5484 5484 5484 5484 5484 5484 5484 5484
5475 5474 5474 5473 5473 5472 5472 5472 5472 5472 5472 5473 5473 5473 5474 5474 5475 5475 5475 5475 5475 5476 5476 5476 5475 5475 5475 5475 5475 5475 5475 5475 5475 5475 5475 5476 5476 5476 5476 5476 5476 5476 5476
5469 5468 5467 5467 5466 5466 5466 5465 5465 5465 5465 5465 5465 5466 5466 5467 5467 5467 5467 5467 5468 5468 5468 5468 5468 5467 5467 5467 5467 5467 5467 5467 5467 5467 5467 5468 5468 5468 5468 5468 5468 5468 5467
5464 5463 5462 5461 5461 5460 5459 5459 5459 5459 5459 5459 5459 5459 5460 5460 5460 5460 5460 5460 5461 5461 5461 5461 5461 5460 5460 5460 5460 5460 5460 5460 5460 5460 5460 5460 5460 5460 5460 5460 5460 5460 5460
5458 5457 5457 5456 5455 5454 5454 5453 5454 5454 5454 5454 5454 5454 5454 5454 5454 5454 5454 5455 5455 5455 5455 5454 5454 5454 5454 5453 5453 5453 5453 5453 5453 5453 5454 5454 5454 5454 5453 5453 5453 5452 5452
5454 5453 5452 5451 5450 5449 5449 5449 5449 5449 5449 5449 5449 5449 5449 5449 5449 5449 5449 5449 5449 5449 5449 5449 5448 5448 5448 5447 5447 5447 5447 5447 5447 5447 5448 5448 5448 5448 5447 5447 5447 5446 5445
5449 5448 5447 5446 5446 5445 5445 5444 5444 5444 5444 5444 5444 5444 5444 5444 5444 5444 5444 5444 5444 5444 5443 5443 5443 5443 5442 5442 5442 5442 5442 5442 5442 5442 5442 5442 5443 5442 5442 5442 5441 5441 5440
5445 5444 5443 5442 5442 5441 5441 5440 5440 5440 5440 5440 5440 5440 5440 5440 5439 5439 5439 5439 5439 5439 5439 5438 5438 5438 5438 5437 5437 5437 5437 5437 5437 5437 5438 5438 5438 5438 5438 5437 5437 5436 5435
5441 5440 5439 5438 5438 5437 5437 5436 5436 5436 5436 5436 5436 5436 5436 5435 5435 5435 5435 5435 5435 5435 5434 5434 5434 5434 5434 5434 5434 5434 5433 5433 5433 5434 5434 5434 5434 5434 5434 5433 5433 5432 5431
5437 5436 5435 5434 5434 5433 5433 5432 5432 5432 5432 5432 5432 5432 5432 5432 5432 5432 5432 5431 5431 5431 5431 5431 5431 5430 5430 5430 5430 5430 5430 5430 5430 5430 5431 5431 5431 5431 5430 5430 5429 5429 5428
5433 5432 5431 5430 5429 5429 5429 5428 5428 5428 5428 5428 5428 5428 5428 5428 5428 5428 5428 5428 5428 5428 5428 5427 5427 5427 5427 5427 5427 5427 5427 5427 5427 5428 5428 5428 5428 5428 5427 5427 5426 5426 5425
5430 5428 5427 5426 5425 5425 5425 5424 5424 5424 5424 5424 5425 5425 5425 5425 5425 5425 5425 5425 5425 5425 5425 5425 5425 5424 5424 5424 5424 5425 5425 5425 5425 5425 5425 5425 5425 5425 5425 5424 5424 5423 5422
5426 5425 5423 5422 5421 5421 5421 5421 5421 5421 5421 5421 5421 5422 5422 5422 5422 5423 5423 5423 5423 5423 5422 5422 5422 5422 5422 5422 5422 5422 5423 5423 5423 5423 5423 5422 5422 5422 5422 5421 5421 5420 5420